sat.trackr.live / text

‹ back to catalog

ICEYE-X54

NORAD 64570 · 2025-135AU

PAYLOAD ACTIVE UNKNOWN

§ Identity

Operator
Country
FIN
Launch date
2025-06-23
Launch site
AFWTR
Launch vehicle
Mass (kg)
RCS (m²)

External: N2YO · Heavens-Above · Gunter

§ Orbital elements

Epoch: 2026-05-25T04:37:37.481952Z

Period
96.36 min
Inclination
97.7692°
Eccentricity
0.0003062
Mean motion
14.94389807 rev/d
Perigee alt
582.1 km
Apogee alt
586.4 km
Semi-major
6,962.4 km
B*
2.8555e-4
RAAN
259.8463°
Arg perigee
59.5863°
Mean anomaly
300.5659°
Rev number
5,046

§ Raw data

ICEYE-X541 64570U 25135AU  26145.19279493  .00003017  00000+0  28555-3 0  99982 64570  97.7692 259.8463 0003062  59.5863 300.5659 14.94389807 50464

JSON: /api/v1/satellites/64570 · /tle

For live sub-satellite position, see the globe view (requires WebGL).

§ Visibility from observer

Set your observer location to see the next 7 days of passes ≥ 10°. The values pass through the URL so the page stays shareable.

No JS? Fill the form by hand. The geolocation button needs JavaScript.

§ Radio — SatNOGS DB

ModeDescriptionDownlinkUplink
FM S-band telemetry 2.264 GHz

1 transmitter · refreshed weekly from db.satnogs.org